User: anonymous   Login
Location: Grasslands National Park East Block
(49.0708°N, 106.5295°W)
Time: 11:23:08
(UTC-06:00)
Language:

S-56A Canister/Altair - Orbit

View from above orbital plane
View from above orbital plane
View from above satellite
View from above satellite

Ground track
Ground track

The orbit data is extracted from the following two-line orbital elements,

1    82U 61004B   19293.48772196 +.00000010 +00000-0 +51949-4 0  9992
2    82 038.8595 010.6258 1174097 000.5439 359.6286 12.26053453778239
Epoch (UTC): 20 October 2019 11:42:19
Eccentricity: 0.1174097
inclination: 38.8595°
perigee height: 633 km
apogee height: 2499 km
right ascension of ascending node: 10.6258°
argument of perigee: 0.5439°
revolutions per day: 12.26053453
mean anomaly at epoch: 359.6286°
orbit number at epoch: 77823

The dashed part of the orbit path shows where the satellite is in the earth's shadow,  

DLR